Location: Brienzwiler
(46.7508°N, 8.1014°E)
Time: 17:02:06
(UTC+00:00)

Cosmos 1633 - Pass Details

Date: 05 July 2020
Orbit: 462 x 482 km, 82.5° (Epoch: 11 August)

Event Time Altitude Azimuth Distance (km) Brightness Sun altitude
Exits shadow 23:01:04 28° 93° (E) 934 3.9 -20.2°
Maximum altitude 23:01:08 28° 91° (E) 933 3.9 -20.2°
Drops below altitude 10° 23:04:17 10° 31° (NNE) 1,665 6.0 -20.3°
Sets 23:06:34 0° 20° (NNE) 2,547 7.3 -20.3°
